Regional Weather Roundup
Issued by NWS

Home | Current Version | Previous Version | Text Only | Print | Product List | Glossary Off
Versions: 1 2 3 4 5 6 7 8 9 10 11 12 13 14 15 16 17 18 19 20 21 22 23 24 25 26 27 28 29 30 31 32 33 34 35 36 37 38 39 40 41 42 43 44 45 46 47 48 49 50

000
ASUS44 KMEG 241510
RWRTN
TENNESSEE HOURLY STATE WEATHER ROUNDUP
NATIONAL WEATHER SERVICE MEMPHIS TN
1000 AM CDT SAT JUN 24 2017

TNZ002-004-019-021-049-052-054-088>092-241600-
WEST TENNESSEE

CITY           SKY/WX    TMP DP  RH WIND       PRES   REMARKS
MEMPHIS INTL   CLOUDY    77  63  61 N12       30.10R
NWS MEMPHIS      N/A     75 N/A N/A MISG        N/A
JACKSON        PTSUNNY   77  63  61 N10       30.09R
SOMERVILLE     SUNNY     75  61  60 N10       30.08R
COVINGTON      SUNNY     75  64  69 N9        30.10R
UNION CITY     SUNNY     75  61  60 N6        30.09R
BOLIVAR        SUNNY     75  61  60 N8        30.07R
PARIS          SUNNY     73  63  68 N7        30.08R
HUNTINGDON     SUNNY     75  61  60 N8        30.07S
LEXINGTON      SUNNY     75  61  60 NE10      30.06S
SELMER         SUNNY     75  66  73 N8        30.06R
SAVANNAH       SUNNY     79  66  65 N12       30.04S
$$

TNZ008-025-027-028-033-062-065-066-241600-
NORTH MIDDLE TENNESSEE

CITY           SKY/WX    TMP DP  RH WIND       PRES   REMARKS
NASHVILLE      PTSUNNY   79  64  60 N9        30.04S
PORTLAND       SUNNY     73  63  68 N9        30.05R
CLARKSVILLE    CLOUDY    74  59  59 N7        30.07R
SMYRNA         SUNNY     78  66  66 N10       30.05S
COOKEVILLE     SUNNY     77  64  65 VRB5      30.03S
GALLATIN       SUNNY     79  66  65 VRB5      30.06S
CROSSVILLE     MOSUNNY   75  65  70 N6        30.06S
$$

TNZ061-075-076-078-094-096-097-241600-
SOUTH MIDDLE TENNESSEE

CITY           SKY/WX    TMP DP  RH WIND       PRES   REMARKS
FAYETTEVILLE   PTSUNNY   75  72  88 N9        30.02F
TULLAHOMA        N/A     75  64  69 N8        30.04S
WINCHESTER     MOSUNNY   75  72  88 VRB3        N/A
MCMINNVILLE    SUNNY     79  64  61 N7        30.04S
COLUMBIA       SUNNY     77  64  65 VRB6      30.02S
SHELBYVILLE    SUNNY     77  66  69 N8        30.03S
$$

TNZ017-018-042-046-047-241600-
NORTHEAST TENNESSEE

CITY           SKY/WX    TMP DP  RH WIND       PRES   REMARKS
TRI CITIES     CLOUDY    72  68  87 W3        30.02R
ELIZABETHTON   CLOUDY    68  66  94 CALM      30.02R FOG
$$

TNZ012-013-036-069-073-074-241600-
CENTRAL EAST TENNESSEE

CITY           SKY/WX    TMP DP  RH WIND       PRES   REMARKS
KNOXVILLE      CLOUDY    74  70  87 W5        30.00R
OAK RIDGE      PTSUNNY   77  71  82 CALM      30.01S
DOWNTOWN KNOXV SUNNY     77  73  88 W3        30.00R
GATLINBURG     CLOUDY    77  68  73 SW5       30.00
MORRISTOWN     CLOUDY    73  72  94 NW6       30.01R FOG
JACKSBORO      PTSUNNY   79  70  73 VRB5G12   30.04R
$$

TNZ083-085-099-241600-
SOUTHEAST TENNESSEE

CITY           SKY/WX    TMP DP  RH WIND       PRES   REMARKS
CHATTANOOGA    CLOUDY    80  73  79 CALM      30.00S
$$

SKY/WX REPORTED AS FAIR MEANS FEW OR NO CLOUDS BELOW
12 THOUSAND FEET.





USA.gov is the U.S. government's official web portal to all federal, state and local government web resources and services.